FW4750 Weather Reports


time (UTC)temp
C
wind
direction
speed
KPH
gust
KPH
rain 1hr
cm
rain 24hr
cm
rain mn
cm
humidity
%
barometer
mb
20200531060129 31 255 0.0 0.0 0.00 0.00 0.00 36 1008.0
20200531054630 31 255 0.0 1.6 0.00 0.00 0.00 34 1008.2
20200531053129 31 255 0.0 0.0 0.00 0.00 0.00 34 1008.3
20200531051623 32 255 0.0 0.0 0.00 0.00 0.00 34 1008.6
20200531050123 32 255 0.0 0.0 0.00 0.00 0.00 33 1008.8
20200531044621 33 255 0.0 3.2 0.00 0.00 0.00 32 1008.8
20200531043120 33 255 1.6 6.4 0.00 0.00 0.00 32 1008.9
20200531041619 33 255 1.6 3.2 0.00 0.00 0.00 31 1008.9
20200531040117 33 255 0.0 3.2 0.00 0.00 0.00 31 1008.6
20200531034615 34 255 1.6 6.4 0.00 0.00 0.00 29 1008.5
20200531033114 35 255 3.2 8.0 0.00 0.00 0.00 27 1008.1
20200531031614 35 255 1.6 6.4 0.00 0.00 0.00 26 1007.6
20200531030115 36 159 3.2 11.3 0.00 0.00 0.00 25 1007.3
20200531024614 38 163 1.6 6.4 0.00 0.00 0.00 16 1007.1
20200531023115 38 265 1.6 6.4 0.00 0.00 0.00 16 1006.1
20200531021614 38 227 1.6 6.4 0.00 0.00 0.00 16 1005.7
20200531020115 39 301 1.6 4.8 0.00 0.00 0.00 17 1005.2
20200531014614 40 197 1.6 6.4 0.00 0.00 0.00 17 1004.8
20200531013112 40 193 1.6 4.8 0.00 0.00 0.00 17 1004.7
20200531011612 40 197 1.6 4.8 0.00 0.00 0.00 17 1004.5
20200531010111 41 238 1.6 6.4 0.00 0.00 0.00 16 1004.4
20200531004604 41 243 0.0 4.8 0.00 0.00 0.00 15 1004.3
20200531003104 41 329 1.6 4.8 0.00 0.00 0.00 15 1004.5
20200531001605 41 201 1.6 4.8 0.00 0.00 0.00 15 1004.4
20200531000102 42 188 1.6 6.4 0.00 0.00 0.00 14 1004.5
20200530234602 42 175 1.6 4.8 0.00 0.00 0.00 14 1004.7
20200530233102 42 204 1.6 6.4 0.00 0.00 0.00 14 1004.8
20200530231602 43 299 1.6 6.4 0.00 0.00 0.00 13 1004.9
20200530230101 43 73 1.6 4.8 0.00 0.00 0.00 13 1005.2
20200530224601 43 250 1.6 4.8 0.00 0.00 0.00 12 1005.5
20200530223058 43 88 1.6 9.7 0.00 0.00 0.00 13 1005.6
20200530221555 43 139 1.6 8.0 0.00 0.00 0.00 13 1005.9
20200530220049 43 69 3.2 9.7 0.00 0.00 0.00 13 1006.1
20200530214551 43 250 1.6 6.4 0.00 0.00 0.00 13 1006.4
20200530213044 43 279 1.6 4.8 0.00 0.00 0.00 15 1006.5
20200530211545 43 220 1.6 11.3 0.00 0.00 0.00 14 1007.0
20200530210037 42 110 3.2 11.3 0.00 0.00 0.00 14 1007.2
20200530204537 42 168 1.6 9.7 0.00 0.00 0.00 15 1007.6
20200530203033 42 47 1.6 8.0 0.00 0.00 0.00 15 1007.8
20200530201536 41 8 3.2 8.0 0.00 0.00 0.00 16 1008.1
20200530200034 42 53 1.6 6.4 0.00 0.00 0.00 15 1008.3
20200530194531 42 45 1.6 8.0 0.00 0.00 0.00 15 1008.5
20200530193029 43 154 1.6 4.8 0.00 0.00 0.00 15 1008.9
20200530191530 42 250 1.6 4.8 0.00 0.00 0.00 14 1009.2
20200530190029 41 182 0.0 4.8 0.00 0.00 0.00 16 1009.3
20200530184529 40 122 1.6 4.8 0.00 0.00 0.00 17 1009.5
20200530183030 40 68 1.6 4.8 0.00 0.00 0.00 17 1009.8
20200530181529 40 207 0.0 4.8 0.00 0.00 0.00 17 1009.9
20200530180030 40 110 1.6 4.8 0.00 0.00 0.00 17 1010.0
20200530174529 40 64 1.6 6.4 0.00 0.00 0.00 18 1010.0
20200530173031 40 140 0.0 3.2 0.00 0.00 0.00 19 1010.2
20200530171531 39 184 1.6 3.2 0.00 0.00 0.00 18 1010.3
20200530170029 38 205 0.0 3.2 0.00 0.00 0.00 20 1010.4
20200530164529 37 206 0.0 3.2 0.00 0.00 0.00 20 1010.4
20200530163029 37 208 0.0 3.2 0.00 0.00 0.00 20 1010.5
20200530161529 36 207 0.0 3.2 0.00 0.00 0.00 22 1010.6
20200530160029 36 206 0.0 1.6 0.00 0.00 0.00 24 1010.8
20200530154528 35 206 1.6 3.2 0.00 0.00 0.00 23 1010.9
20200530153028 35 211 0.0 3.2 0.00 0.00 0.00 23 1011.0
20200530151530 33 214 0.0 3.2 0.00 0.00 0.00 26 1011.0
20200530150029 32 255 0.0 1.6 0.00 0.00 0.00 29 1011.0
20200530144530 31 255 1.6 3.2 0.00 0.00 0.00 34 1010.9
20200530143023 31 255 0.0 3.2 0.00 0.00 0.00 36 1010.8
20200530141524 30 255 0.0 1.6 0.00 0.00 0.00 38 1010.6
20200530140016 30 255 0.0 1.6 0.00 0.00 0.00 33 1010.5
20200530134516 29 255 0.0 0.0 0.00 0.00 0.00 39 1010.4
20200530133009 28 255 0.0 0.0 0.00 0.00 0.00 34 1010.3
20200530131508 28 255 0.0 0.0 0.00 0.00 0.00 31 1010.4
20200530130004 28 255 0.0 0.0 0.00 0.00 0.00 30 1010.4
20200530124503 28 255 0.0 1.6 0.00 0.00 0.00 27 1010.2
20200530123001 27 255 0.0 1.6 0.00 0.00 0.00 28 1010.1
20200530121501 27 255 0.0 0.0 0.00 0.00 0.00 31 1010.0
20200530120000 27 255 0.0 0.0 0.00 0.00 0.00 31 1009.8
20200530114500 27 255 0.0 0.0 0.00 0.00 0.00 28 1009.8
20200530113001 27 255 0.0 0.0 0.00 0.00 0.00 31 1009.8
20200530111501 27 255 0.0 1.6 0.00 0.00 0.00 33 1009.9
20200530110003 27 255 0.0 0.0 0.00 0.00 0.00 30 1009.9
20200530104503 28 255 0.0 0.0 0.00 0.00 0.00 29 1009.9
20200530103000 29 255 0.0 0.0 0.00 0.00 0.00 27 1009.8
20200530101501 30 255 0.0 0.0 0.00 0.00 0.00 27 1009.9
20200530100001 30 255 0.0 1.6 0.00 0.00 0.00 24 1009.7
20200530094503 31 255 0.0 1.6 0.00 0.00 0.00 23 1009.5
20200530093000 31 255 0.0 1.6 0.00 0.00 0.00 22 1009.6
20200530091503 32 255 0.0 1.6 0.00 0.00 0.00 22 1009.5
20200530090001 32 255 0.0 1.6 0.00 0.00 0.00 21 1009.5
20200530084459 32 255 0.0 3.2 0.00 0.00 0.00 21 1009.6
20200530082957 32 255 0.0 1.6 0.00 0.00 0.00 20 1009.5
20200530081501 32 255 0.0 1.6 0.00 0.00 0.00 20 1009.6
20200530075955 32 255 0.0 1.6 0.00 0.00 0.00 20 1009.6
20200530074451 32 255 0.0 1.6 0.00 0.00 0.00 20 1009.6
20200530072952 32 255 0.0 0.0 0.00 0.00 0.00 22 1009.8
20200530071450 32 255 0.0 0.0 0.00 0.00 0.00 22 1009.9
20200530065950 32 255 0.0 0.0 0.00 0.00 0.00 27 1009.9
20200530064444 32 255 0.0 0.0 0.00 0.00 0.00 26 1009.7
20200530062946 32 255 0.0 0.0 0.00 0.00 0.00 27 1009.8
20200530061439 32 255 0.0 3.2 0.00 0.00 0.00 26 1009.7